MCA1477 KMIA-KJFK

Flight info

Callsign MCA1477
Flight time 2h 17m
Altitude 37000
Route FOLZZ3 ALYRA PELCN Y309 FLRDA SAGGY CHIEZ Q161 KALDA Q108 SIE CAMRN5
Aircraft B38M/M-SDE1FGHILORVWXY/HB1

Departure

Time 2026-05-08 23:06
Airport Miami International Airport (KMIA)

Arrival

Time 2026-05-09 01:23
Airport John F. Kennedy International Airport (KJFK)
Time Latitude Longitude Altitude Speed Heading
2026-05-08 22:25 25.79827 -80.28269 17 ft 0 kts 177°
2026-05-08 22:56 25.79851 -80.28271 20 ft 4 kts 177°
2026-05-08 22:56 25.79874 -80.28270 19 ft 4 kts 199°
2026-05-08 22:56 25.79889 -80.28254 21 ft 4 kts 258°
2026-05-08 22:56 25.79891 -80.28234 21 ft 1 kts 268°
2026-05-08 22:57 25.79891 -80.28230 21 ft 0 kts 268°
2026-05-08 23:00 25.79891 -80.28236 21 ft 3 kts 268°
2026-05-08 23:00 25.79890 -80.28269 21 ft 5 kts 268°
2026-05-08 23:00 25.79909 -80.28307 19 ft 7 kts 330°
2026-05-08 23:01 25.79949 -80.28318 17 ft 12 kts 351°
2026-05-08 23:01 25.80030 -80.28369 17 ft 16 kts 280°
2026-05-08 23:01 25.80029 -80.28496 17 ft 17 kts 268°
2026-05-08 23:01 25.80024 -80.28627 18 ft 16 kts 267°
2026-05-08 23:02 25.80018 -80.28752 19 ft 17 kts 267°
2026-05-08 23:02 25.80013 -80.28888 19 ft 18 kts 267°
2026-05-08 23:02 25.80007 -80.29022 18 ft 15 kts 267°
2026-05-08 23:02 25.80002 -80.29146 19 ft 17 kts 267°
2026-05-08 23:03 25.79996 -80.29281 18 ft 18 kts 267°
2026-05-08 23:03 25.79990 -80.29432 17 ft 21 kts 267°
2026-05-08 23:03 25.79984 -80.29567 17 ft 17 kts 267°
2026-05-08 23:03 25.79978 -80.29698 18 ft 16 kts 266°
2026-05-08 23:04 25.79972 -80.29823 16 ft 17 kts 266°
2026-05-08 23:04 25.79971 -80.29965 16 ft 19 kts 283°
2026-05-08 23:04 25.80011 -80.30092 16 ft 15 kts 299°
2026-05-08 23:04 25.80075 -80.30067 16 ft 14 kts 86°
2026-05-08 23:05 25.80079 -80.29943 15 ft 20 kts 88°
2026-05-08 23:05 25.80093 -80.29584 16 ft 83 kts 87°
2026-05-08 23:05 25.80132 -80.28693 19 ft 146 kts 87°
2026-05-08 23:05 25.80185 -80.27435 327 ft 175 kts 86°
2026-05-08 23:06 25.80262 -80.26029 933 ft 187 kts 92°
2026-05-08 23:06 25.80028 -80.24590 1564 ft 194 kts 115°
2026-05-08 23:06 25.79393 -80.23219 1990 ft 212 kts 122°
2026-05-08 23:06 25.78629 -80.21733 2321 ft 236 kts 120°
2026-05-08 23:07 25.77811 -80.20063 2743 ft 256 kts 118°
2026-05-08 23:07 25.76947 -80.18251 3197 ft 274 kts 119°
2026-05-08 23:07 25.76007 -80.16374 3844 ft 279 kts 120°
2026-05-08 23:07 25.75062 -80.14471 4600 ft 284 kts 119°
2026-05-08 23:08 25.74423 -80.12404 5349 ft 285 kts 94°
2026-05-08 23:08 25.74654 -80.10233 6096 ft 286 kts 68°
2026-05-08 23:08 25.75683 -80.08369 6853 ft 283 kts 48°
2026-05-08 23:08 25.76973 -80.06688 7506 ft 288 kts 49°
2026-05-08 23:09 25.78275 -80.04998 8208 ft 289 kts 49°
2026-05-08 23:09 25.79596 -80.03300 8907 ft 292 kts 49°
2026-05-08 23:09 25.80916 -80.01612 9583 ft 294 kts 49°
2026-05-08 23:09 25.82267 -79.99891 10204 ft 299 kts 49°
2026-05-08 23:10 25.83672 -79.98106 10481 ft 316 kts 49°
2026-05-08 23:10 25.85151 -79.96226 10803 ft 329 kts 49°
2026-05-08 23:10 25.86667 -79.94299 11408 ft 332 kts 48°
2026-05-08 23:10 25.88193 -79.92359 12018 ft 337 kts 48°
2026-05-08 23:11 25.89745 -79.90384 12669 ft 341 kts 48°
2026-05-08 23:11 25.91316 -79.88386 13322 ft 345 kts 48°
2026-05-08 23:11 25.92902 -79.86365 13975 ft 349 kts 47°
2026-05-08 23:11 25.94508 -79.84319 14586 ft 353 kts 47°
2026-05-08 23:12 25.96128 -79.82255 15221 ft 356 kts 47°
2026-05-08 23:12 25.97765 -79.80167 15838 ft 359 kts 47°
2026-05-08 23:12 25.99413 -79.78065 16448 ft 363 kts 47°
2026-05-08 23:12 26.01061 -79.75963 17039 ft 366 kts 47°
2026-05-08 23:13 26.02746 -79.73812 17615 ft 370 kts 47°
2026-05-08 23:13 26.04442 -79.71645 18184 ft 374 kts 47°
2026-05-08 23:13 26.06162 -79.69446 18681 ft 378 kts 46°
2026-05-08 23:13 26.07895 -79.67231 19150 ft 381 kts 46°
2026-05-08 23:14 26.09641 -79.64998 19615 ft 385 kts 46°
2026-05-08 23:14 26.11283 -79.62611 20064 ft 391 kts 53°
2026-05-08 23:14 26.12838 -79.60113 20516 ft 394 kts 52°
2026-05-08 23:14 26.14420 -79.57608 20967 ft 398 kts 52°
2026-05-08 23:15 26.16026 -79.55085 21416 ft 401 kts 51°
2026-05-08 23:15 26.17651 -79.52542 21846 ft 405 kts 51°
2026-05-08 23:15 26.19294 -79.49971 22283 ft 409 kts 51°
2026-05-08 23:15 26.20948 -79.47385 22713 ft 412 kts 51°
2026-05-08 23:16 26.22620 -79.44767 23146 ft 416 kts 51°
2026-05-08 23:16 26.24303 -79.42132 23551 ft 419 kts 51°
2026-05-08 23:16 26.26000 -79.39473 23908 ft 422 kts 51°
2026-05-08 23:16 26.27714 -79.36801 24279 ft 424 kts 49°
2026-05-08 23:17 26.29769 -79.34494 24620 ft 417 kts 31°
2026-05-08 23:17 26.32169 -79.32694 24948 ft 418 kts 29°
2026-05-08 23:17 26.34610 -79.30899 25288 ft 421 kts 28°
2026-05-08 23:17 26.37070 -79.29116 25664 ft 423 kts 28°
2026-05-08 23:18 26.39549 -79.27336 26015 ft 425 kts 28°
2026-05-08 23:18 26.42042 -79.25555 26359 ft 427 kts 27°
2026-05-08 23:18 26.44520 -79.23787 26703 ft 429 kts 27°
2026-05-08 23:18 26.47044 -79.21986 27044 ft 432 kts 27°
2026-05-08 23:19 26.49576 -79.20179 27374 ft 434 kts 27°
2026-05-08 23:19 26.52133 -79.18353 27701 ft 436 kts 27°
2026-05-08 23:19 26.54700 -79.16518 28038 ft 438 kts 27°
2026-05-08 23:19 26.57272 -79.14680 28347 ft 441 kts 27°
2026-05-08 23:20 26.59862 -79.12827 28664 ft 443 kts 27°
2026-05-08 23:20 26.62463 -79.10966 28971 ft 445 kts 27°
2026-05-08 23:20 26.65084 -79.09089 29278 ft 448 kts 27°
2026-05-08 23:20 26.67712 -79.07206 29589 ft 450 kts 27°
2026-05-08 23:21 26.70354 -79.05312 29882 ft 452 kts 27°
2026-05-08 23:21 26.73007 -79.03409 30147 ft 454 kts 27°
2026-05-08 23:21 26.75673 -79.01496 30399 ft 456 kts 27°
2026-05-08 23:21 26.78318 -78.99597 30650 ft 458 kts 27°
2026-05-08 23:22 26.81038 -78.97643 30902 ft 460 kts 27°
2026-05-08 23:22 26.83698 -78.95730 31140 ft 462 kts 27°
2026-05-08 23:22 26.86414 -78.93777 31390 ft 463 kts 27°
2026-05-08 23:22 26.89133 -78.91819 31636 ft 465 kts 27°
2026-05-08 23:23 26.91867 -78.89851 31880 ft 467 kts 27°
2026-05-08 23:23 26.94606 -78.87877 32119 ft 469 kts 27°
2026-05-08 23:23 26.97358 -78.85893 32366 ft 470 kts 27°
2026-05-08 23:23 27.00119 -78.83901 32593 ft 472 kts 27°
2026-05-08 23:24 27.02889 -78.81902 32817 ft 474 kts 27°
2026-05-08 23:24 27.05671 -78.79892 33039 ft 476 kts 27°
2026-05-08 23:24 27.08459 -78.77877 33253 ft 478 kts 27°
2026-05-08 23:24 27.11225 -78.75877 33512 ft 479 kts 27°
2026-05-08 23:25 27.14027 -78.73849 33809 ft 479 kts 27°
2026-05-08 23:25 27.16829 -78.71821 34094 ft 479 kts 27°
2026-05-08 23:25 27.19627 -78.69794 34364 ft 478 kts 27°
2026-05-08 23:25 27.22422 -78.67768 34665 ft 477 kts 27°
2026-05-08 23:26 27.25204 -78.65751 34936 ft 476 kts 27°
2026-05-08 23:26 27.28093 -78.64029 35190 ft 464 kts 13°
2026-05-08 23:26 27.31179 -78.63197 35469 ft 452 kts
2026-05-08 23:26 27.34302 -78.62687 35650 ft 453 kts
2026-05-08 23:27 27.37432 -78.62222 35872 ft 452 kts
2026-05-08 23:27 27.40511 -78.61792 36090 ft 451 kts
2026-05-08 23:27 27.43626 -78.61375 36325 ft 450 kts
2026-05-08 23:27 27.46732 -78.60968 36557 ft 449 kts
2026-05-08 23:28 27.49841 -78.60564 36782 ft 449 kts
2026-05-08 23:28 27.52941 -78.60162 36984 ft 448 kts
2026-05-08 23:28 27.59192 -78.59349 37013 ft 456 kts
2026-05-08 23:29 27.65512 -78.58527 37015 ft 457 kts
2026-05-08 23:29 27.71828 -78.57704 37019 ft 457 kts
2026-05-08 23:30 27.78141 -78.56881 37018 ft 457 kts
2026-05-08 23:30 27.84453 -78.56057 37017 ft 457 kts
2026-05-08 23:31 27.90770 -78.55232 37017 ft 457 kts 360°
2026-05-08 23:31 27.97043 -78.54411 37016 ft 457 kts 360°
2026-05-08 23:32 28.03363 -78.53583 37020 ft 456 kts 360°
2026-05-08 23:32 28.09670 -78.52756 37018 ft 456 kts 360°
2026-05-08 23:33 28.15986 -78.51926 37018 ft 456 kts 359°
2026-05-08 23:33 28.22285 -78.51098 37016 ft 456 kts 359°
2026-05-08 23:34 28.28596 -78.50267 37019 ft 456 kts 359°
2026-05-08 23:34 28.34902 -78.49436 37016 ft 456 kts 359°
2026-05-08 23:35 28.41200 -78.48605 37023 ft 456 kts 359°
2026-05-08 23:35 28.47471 -78.47777 37017 ft 456 kts 359°
2026-05-08 23:36 28.53781 -78.46943 37023 ft 456 kts 359°
2026-05-08 23:36 28.60078 -78.46109 37021 ft 456 kts 359°
2026-05-08 23:37 28.66384 -78.45273 37020 ft 456 kts 359°
2026-05-08 23:37 28.72686 -78.44436 37022 ft 456 kts 359°
2026-05-08 23:38 28.78987 -78.43599 37024 ft 456 kts 358°
2026-05-08 23:38 28.85286 -78.42761 37015 ft 456 kts 358°
2026-05-08 23:39 28.91589 -78.41921 37023 ft 456 kts 358°
2026-05-08 23:39 28.97861 -78.41084 37026 ft 456 kts 358°
2026-05-08 23:40 29.04170 -78.40242 37022 ft 456 kts 358°
2026-05-08 23:40 29.10482 -78.39398 37025 ft 456 kts 358°
2026-05-08 23:41 29.16806 -78.38551 37029 ft 457 kts 358°
2026-05-08 23:41 29.23117 -78.37705 37026 ft 457 kts 358°
2026-05-08 23:42 29.29389 -78.36864 37029 ft 457 kts 358°
2026-05-08 23:42 29.35711 -78.36014 37024 ft 457 kts 358°
2026-05-08 23:43 29.42031 -78.35164 37024 ft 457 kts 358°
2026-05-08 23:43 29.48352 -78.34351 37027 ft 452 kts 353°
2026-05-08 23:44 29.54485 -78.34718 37027 ft 444 kts 347°
2026-05-08 23:44 29.60651 -78.35163 37034 ft 444 kts 347°
2026-05-08 23:45 29.66816 -78.35617 37026 ft 444 kts 347°
2026-05-08 23:45 29.72981 -78.36073 37030 ft 444 kts 347°
2026-05-08 23:46 29.79145 -78.36530 37027 ft 443 kts 347°
2026-05-08 23:46 29.85303 -78.36987 37029 ft 443 kts 346°
2026-05-08 23:47 29.91418 -78.37442 37030 ft 443 kts 346°
2026-05-08 23:47 29.97571 -78.37901 37032 ft 443 kts 346°
2026-05-08 23:48 30.03728 -78.38360 37035 ft 443 kts 346°
2026-05-08 23:48 30.09882 -78.38819 37032 ft 443 kts 346°
2026-05-08 23:49 30.16110 -78.38672 37038 ft 458 kts 357°
2026-05-08 23:49 30.22442 -78.37751 37030 ft 459 kts 356°
2026-05-08 23:50 30.27705 -78.36969 37033 ft 459 kts 356°
2026-05-08 23:50 30.34053 -78.36018 37037 ft 459 kts 356°
2026-05-08 23:51 30.40391 -78.35067 37039 ft 459 kts 357°
2026-05-08 23:51 30.46689 -78.33621 37066 ft 465 kts
2026-05-08 23:52 30.53026 -78.32143 37042 ft 464 kts 360°
2026-05-08 23:52 30.59366 -78.30680 37043 ft 465 kts
2026-05-08 23:53 30.65714 -78.29213 37043 ft 465 kts
2026-05-08 23:53 30.72073 -78.27742 37044 ft 466 kts
2026-05-08 23:54 30.78433 -78.26269 37042 ft 466 kts
2026-05-08 23:55 30.87943 -78.24062 37042 ft 467 kts
2026-05-08 23:55 30.94326 -78.22599 37047 ft 466 kts 359°
2026-05-08 23:56 31.00714 -78.21184 37053 ft 467 kts 359°
2026-05-08 23:56 31.07098 -78.19763 37048 ft 467 kts 359°
2026-05-08 23:57 31.13493 -78.18337 37047 ft 467 kts 359°
2026-05-08 23:57 31.19884 -78.16910 37047 ft 467 kts 359°
2026-05-08 23:58 31.26282 -78.15479 37047 ft 468 kts 359°
2026-05-08 23:58 31.32675 -78.14048 37046 ft 468 kts 359°
2026-05-08 23:59 31.39060 -78.12616 37050 ft 467 kts 359°
2026-05-08 23:59 31.45443 -78.11398 37056 ft 462 kts 356°
2026-05-09 00:00 31.51814 -78.10327 37054 ft 463 kts 356°
2026-05-09 00:00 31.58140 -78.09245 37051 ft 462 kts 356°
2026-05-09 00:01 31.64512 -78.08152 37054 ft 462 kts 356°
2026-05-09 00:01 31.70874 -78.07059 37052 ft 462 kts 356°
2026-05-09 00:02 31.77242 -78.05964 37053 ft 462 kts 356°
2026-05-09 00:02 31.83608 -78.04867 37053 ft 462 kts 356°
2026-05-09 00:03 31.89980 -78.03768 37054 ft 462 kts 356°
2026-05-09 00:03 31.96345 -78.02669 37053 ft 462 kts 356°
2026-05-09 00:04 32.02673 -78.01574 37053 ft 463 kts 356°
2026-05-09 00:04 32.09058 -78.00468 37052 ft 463 kts 356°
2026-05-09 00:05 32.15437 -77.99362 37050 ft 464 kts 356°
2026-05-09 00:05 32.21830 -77.98251 37056 ft 464 kts 356°
2026-05-09 00:06 32.28226 -77.97139 37065 ft 465 kts 356°
2026-05-09 00:06 32.34643 -77.96021 37058 ft 465 kts 356°
2026-05-09 00:07 32.41061 -77.94902 37063 ft 466 kts 356°
2026-05-09 00:07 32.47439 -77.93787 37058 ft 466 kts 356°
2026-05-09 00:08 32.53860 -77.92664 37061 ft 467 kts 356°
2026-05-09 00:08 32.60290 -77.91537 37060 ft 467 kts 356°
2026-05-09 00:09 32.66723 -77.90409 37066 ft 467 kts 356°
2026-05-09 00:09 32.73151 -77.89279 37066 ft 467 kts 356°
2026-05-09 00:10 32.79575 -77.88149 37061 ft 467 kts 356°
2026-05-09 00:10 32.86006 -77.87016 37068 ft 466 kts 356°
2026-05-09 00:11 32.92420 -77.85884 37066 ft 466 kts 356°
2026-05-09 00:11 32.98830 -77.84751 37071 ft 465 kts 356°
2026-05-09 00:12 33.05232 -77.83617 37071 ft 465 kts 356°
2026-05-09 00:12 33.11589 -77.82491 37068 ft 464 kts 356°
2026-05-09 00:13 33.17978 -77.81357 37075 ft 464 kts 356°
2026-05-09 00:13 33.24362 -77.80221 37072 ft 463 kts 356°
2026-05-09 00:14 33.30735 -77.79087 37072 ft 463 kts 356°
2026-05-09 00:14 33.37103 -77.77951 37074 ft 462 kts 356°
2026-05-09 00:15 33.43468 -77.76815 37073 ft 462 kts 356°
2026-05-09 00:15 33.49835 -77.75676 37074 ft 462 kts 356°
2026-05-09 00:16 33.56203 -77.74536 37068 ft 463 kts 356°
2026-05-09 00:16 33.62572 -77.73394 37073 ft 463 kts 355°
2026-05-09 00:17 33.68911 -77.72199 37073 ft 466 kts 358°
2026-05-09 00:17 33.75296 -77.70792 37072 ft 467 kts 357°
2026-05-09 00:18 33.81692 -77.69403 37068 ft 467 kts 357°
2026-05-09 00:18 33.88089 -77.68014 37069 ft 467 kts 357°
2026-05-09 00:19 33.94493 -77.66620 37067 ft 467 kts 357°
2026-05-09 00:19 34.00904 -77.65224 37071 ft 467 kts 357°
2026-05-09 00:20 34.07311 -77.63825 37071 ft 468 kts 356°
2026-05-09 00:20 34.13725 -77.62424 37070 ft 468 kts 356°
2026-05-09 00:21 34.20096 -77.61029 37069 ft 468 kts 356°
2026-05-09 00:21 34.26512 -77.59623 37067 ft 468 kts 356°
2026-05-09 00:22 34.32923 -77.58215 37069 ft 468 kts 356°
2026-05-09 00:22 34.39338 -77.56805 37066 ft 469 kts 356°
2026-05-09 00:23 34.45757 -77.55391 37068 ft 469 kts 355°
2026-05-09 00:23 34.52176 -77.53683 37046 ft 491 kts
2026-05-09 00:24 34.58465 -77.50051 37056 ft 502 kts 12°
2026-05-09 00:24 34.64749 -77.46325 37078 ft 503 kts 12°
2026-05-09 00:25 34.71029 -77.42562 37075 ft 503 kts 12°
2026-05-09 00:25 34.77312 -77.38791 37082 ft 503 kts 12°
2026-05-09 00:26 34.83565 -77.35030 37076 ft 504 kts 12°
2026-05-09 00:26 34.89846 -77.31245 37073 ft 504 kts 12°
2026-05-09 00:27 34.96124 -77.27456 37080 ft 504 kts 12°
2026-05-09 00:27 35.02404 -77.23661 37082 ft 503 kts 12°
2026-05-09 00:28 35.08682 -77.19859 37083 ft 504 kts 12°
2026-05-09 00:28 35.14965 -77.16047 37089 ft 504 kts 12°
2026-05-09 00:29 35.21240 -77.12234 37087 ft 504 kts 12°
2026-05-09 00:29 35.27517 -77.08413 37068 ft 504 kts 12°
2026-05-09 00:30 35.33760 -77.04607 37067 ft 504 kts 12°
2026-05-09 00:30 35.40057 -77.00761 37071 ft 506 kts 11°
2026-05-09 00:31 35.46362 -76.96902 37075 ft 507 kts 11°
2026-05-09 00:31 35.52679 -76.93031 37078 ft 508 kts 11°
2026-05-09 00:32 35.58998 -76.89168 37073 ft 507 kts 11°
2026-05-09 00:32 35.65335 -76.85320 37068 ft 508 kts 11°
2026-05-09 00:33 35.71682 -76.81455 37063 ft 509 kts 11°
2026-05-09 00:33 35.78033 -76.77582 37059 ft 509 kts 11°
2026-05-09 00:34 35.84386 -76.73700 37068 ft 509 kts 11°
2026-05-09 00:34 35.90735 -76.69744 37067 ft 516 kts 13°
2026-05-09 00:35 35.97023 -76.65470 37076 ft 516 kts 13°
2026-05-09 00:35 36.02270 -76.61935 37080 ft 517 kts 13°
2026-05-09 00:36 36.09606 -76.56986 37079 ft 517 kts 12°
2026-05-09 00:36 36.14900 -76.53409 37076 ft 517 kts 12°
2026-05-09 00:37 36.21215 -76.49134 37067 ft 516 kts 12°
2026-05-09 00:37 36.27479 -76.44886 37059 ft 516 kts 12°
2026-05-09 00:38 36.33786 -76.40600 37065 ft 516 kts 12°
2026-05-09 00:38 36.40090 -76.36309 37064 ft 516 kts 12°
2026-05-09 00:39 36.46379 -76.32020 37074 ft 515 kts 12°
2026-05-09 00:39 36.52614 -76.27760 37076 ft 514 kts 12°
2026-05-09 00:40 36.58881 -76.23470 37080 ft 514 kts 13°
2026-05-09 00:40 36.65148 -76.19172 37062 ft 513 kts 13°
2026-05-09 00:41 36.74525 -76.12726 37056 ft 512 kts 13°
2026-05-09 00:41 36.80761 -76.08429 37050 ft 512 kts 13°
2026-05-09 00:42 36.86994 -76.04126 37052 ft 512 kts 13°
2026-05-09 00:42 36.93222 -75.99819 37051 ft 511 kts 13°
2026-05-09 00:43 36.99442 -75.95510 37058 ft 510 kts 13°
2026-05-09 00:43 37.05605 -75.91233 37067 ft 510 kts 13°
2026-05-09 00:44 37.08732 -75.89212 37050 ft 491 kts
2026-05-09 00:44 37.11893 -75.87997 37081 ft 473 kts 358°
2026-05-09 00:44 37.18253 -75.85719 37072 ft 474 kts 358°
2026-05-09 00:45 37.24604 -75.83505 37069 ft 474 kts 358°
2026-05-09 00:45 37.30966 -75.81294 37068 ft 473 kts 358°
2026-05-09 00:46 37.37318 -75.79083 37068 ft 474 kts 358°
2026-05-09 00:46 37.43668 -75.76869 37062 ft 473 kts 358°
2026-05-09 00:47 37.50007 -75.74656 37064 ft 473 kts 359°
2026-05-09 00:47 37.56352 -75.72436 37052 ft 473 kts 359°
2026-05-09 00:48 37.62650 -75.70229 37054 ft 473 kts 359°
2026-05-09 00:48 37.68984 -75.68005 37051 ft 472 kts 359°
2026-05-09 00:49 37.75325 -75.65775 37047 ft 472 kts 359°
2026-05-09 00:49 37.81656 -75.63541 37047 ft 474 kts
2026-05-09 00:50 37.84793 -75.61902 37023 ft 503 kts 15°
2026-05-09 00:50 37.87766 -75.59444 37053 ft 514 kts 19°
2026-05-09 00:50 37.93711 -75.54367 37048 ft 516 kts 20°
2026-05-09 00:51 37.99625 -75.49221 37042 ft 515 kts 20°
2026-05-09 00:51 38.05506 -75.44153 37044 ft 510 kts 18°
2026-05-09 00:52 38.11484 -75.39291 37043 ft 511 kts 18°
2026-05-09 00:52 38.17483 -75.34365 37030 ft 510 kts 18°
2026-05-09 00:53 38.23463 -75.29562 37019 ft 496 kts 10°
2026-05-09 00:53 38.26526 -75.28148 37024 ft 458 kts 355°
2026-05-09 00:53 38.29643 -75.27350 37026 ft 457 kts 354°
2026-05-09 00:54 38.35884 -75.25898 37035 ft 454 kts 353°
2026-05-09 00:54 38.42107 -75.24560 37032 ft 453 kts 353°
2026-05-09 00:55 38.48331 -75.23249 37032 ft 453 kts 353°
2026-05-09 00:55 38.54551 -75.21943 37007 ft 453 kts 353°
2026-05-09 00:56 38.60768 -75.20635 37005 ft 453 kts 353°
2026-05-09 00:56 38.66967 -75.19322 37006 ft 456 kts 355°
2026-05-09 00:57 38.70095 -75.18081 36983 ft 486 kts 10°
2026-05-09 00:57 38.73084 -75.15803 37016 ft 513 kts 23°
2026-05-09 00:57 38.78833 -75.10286 37011 ft 517 kts 24°
2026-05-09 00:58 38.84556 -75.04691 37005 ft 517 kts 24°
2026-05-09 00:58 38.90275 -74.99069 37008 ft 517 kts 25°
2026-05-09 00:59 38.95976 -74.93454 37005 ft 516 kts 25°
2026-05-09 00:59 39.01635 -74.87867 36881 ft 517 kts 25°
2026-05-09 01:00 39.04512 -74.85021 36430 ft 513 kts 25°
2026-05-09 01:00 39.07324 -74.82242 35309 ft 518 kts 26°
2026-05-09 01:00 39.10123 -74.79341 34495 ft 516 kts 29°
2026-05-09 01:00 39.12856 -74.76366 33523 ft 512 kts 29°
2026-05-09 01:01 39.15587 -74.73420 32368 ft 511 kts 30°
2026-05-09 01:01 39.18302 -74.70496 31452 ft 506 kts 30°
2026-05-09 01:01 39.21000 -74.67592 30769 ft 505 kts 30°
2026-05-09 01:01 39.23689 -74.64694 29971 ft 501 kts 30°
2026-05-09 01:02 39.26379 -74.61795 28880 ft 508 kts 31°
2026-05-09 01:02 39.29100 -74.58855 27949 ft 511 kts 31°
2026-05-09 01:02 39.31823 -74.55910 26978 ft 511 kts 31°
2026-05-09 01:02 39.34546 -74.52962 25933 ft 510 kts 32°
2026-05-09 01:03 39.37266 -74.50016 24848 ft 508 kts 32°
2026-05-09 01:03 39.39945 -74.47109 23899 ft 496 kts 32°
2026-05-09 01:03 39.42556 -74.44263 22929 ft 485 kts 32°
2026-05-09 01:03 39.45103 -74.41483 21953 ft 474 kts 32°
2026-05-09 01:04 39.47560 -74.38800 21038 ft 463 kts 32°
2026-05-09 01:04 39.49998 -74.36134 20167 ft 453 kts 33°
2026-05-09 01:04 39.52372 -74.33536 19342 ft 442 kts 33°
2026-05-09 01:04 39.54696 -74.30990 18691 ft 430 kts 33°
2026-05-09 01:05 39.56933 -74.28538 18218 ft 413 kts 32°
2026-05-09 01:05 39.59080 -74.26181 17975 ft 392 kts 32°
2026-05-09 01:05 39.63150 -74.21711 17160 ft 379 kts 32°
2026-05-09 01:06 39.65128 -74.19537 16822 ft 374 kts 32°
2026-05-09 01:06 39.67104 -74.17363 16507 ft 370 kts 32°
2026-05-09 01:06 39.69061 -74.15207 16136 ft 367 kts 32°
2026-05-09 01:06 39.70997 -74.13073 15829 ft 365 kts 32°
2026-05-09 01:07 39.72933 -74.10936 15516 ft 365 kts 33°
2026-05-09 01:07 39.74866 -74.08803 15202 ft 363 kts 33°
2026-05-09 01:07 39.76781 -74.06686 14887 ft 360 kts 33°
2026-05-09 01:07 39.78684 -74.04582 14581 ft 358 kts 33°
2026-05-09 01:08 39.80574 -74.02491 14272 ft 355 kts 33°
2026-05-09 01:08 39.82450 -74.00412 13966 ft 353 kts 33°
2026-05-09 01:08 39.84345 -73.98427 13612 ft 345 kts 25°
2026-05-09 01:08 39.86397 -73.96947 13252 ft 330 kts 20°
2026-05-09 01:09 39.88347 -73.95579 12995 ft 314 kts 20°
2026-05-09 01:09 39.90227 -73.94254 12739 ft 300 kts 20°
2026-05-09 01:09 39.92039 -73.92974 12487 ft 294 kts 20°
2026-05-09 01:09 39.93829 -73.91709 12216 ft 292 kts 20°
2026-05-09 01:10 39.95621 -73.90439 11957 ft 294 kts 20°
2026-05-09 01:10 39.97420 -73.89165 11703 ft 294 kts 20°
2026-05-09 01:10 39.99223 -73.87885 11437 ft 295 kts 20°
2026-05-09 01:10 40.01030 -73.86604 11175 ft 296 kts 20°
2026-05-09 01:11 40.02828 -73.85313 11102 ft 295 kts 20°
2026-05-09 01:11 40.04634 -73.84016 11107 ft 297 kts 20°
2026-05-09 01:11 40.06433 -73.82724 10893 ft 295 kts 20°
2026-05-09 01:11 40.08237 -73.81437 10561 ft 294 kts 20°
2026-05-09 01:12 40.10018 -73.80169 10055 ft 292 kts 20°
2026-05-09 01:12 40.11820 -73.78906 9411 ft 294 kts 20°
2026-05-09 01:12 40.13618 -73.77666 8919 ft 290 kts 20°
2026-05-09 01:12 40.15400 -73.76453 8411 ft 287 kts 20°
2026-05-09 01:13 40.17166 -73.75264 7902 ft 284 kts 20°
2026-05-09 01:13 40.18894 -73.74119 7429 ft 281 kts 20°
2026-05-09 01:13 40.20632 -73.72982 6956 ft 278 kts 20°
2026-05-09 01:13 40.22356 -73.71865 6487 ft 274 kts 20°
2026-05-09 01:14 40.24062 -73.70774 6013 ft 271 kts 20°
2026-05-09 01:14 40.25748 -73.69706 5541 ft 268 kts 20°
2026-05-09 01:14 40.27422 -73.68659 5085 ft 264 kts 20°
2026-05-09 01:14 40.29050 -73.67656 4815 ft 253 kts 20°
2026-05-09 01:15 40.30609 -73.66694 4580 ft 242 kts 20°
2026-05-09 01:15 40.32104 -73.65777 4364 ft 231 kts 20°
2026-05-09 01:15 40.33548 -73.64889 3961 ft 231 kts 20°
2026-05-09 01:15 40.35045 -73.63999 3293 ft 242 kts 20°
2026-05-09 01:16 40.36585 -73.63124 2997 ft 247 kts 20°
2026-05-09 01:16 40.38189 -73.62231 2980 ft 253 kts 20°
2026-05-09 01:16 40.39817 -73.61323 2993 ft 254 kts 20°
2026-05-09 01:17 40.43163 -73.60061 2520 ft 248 kts
2026-05-09 01:17 40.44854 -73.59686 2131 ft 244 kts
2026-05-09 01:17 40.46498 -73.59332 2044 ft 229 kts
2026-05-09 01:17 40.48010 -73.59005 2045 ft 217 kts
2026-05-09 01:18 40.49494 -73.58687 2025 ft 215 kts
2026-05-09 01:18 40.50954 -73.58375 2013 ft 215 kts
2026-05-09 01:18 40.52438 -73.58071 2007 ft 215 kts
2026-05-09 01:18 40.53876 -73.58399 1981 ft 210 kts 334°
2026-05-09 01:19 40.55151 -73.59338 2010 ft 211 kts 327°
2026-05-09 01:19 40.56408 -73.60338 2008 ft 211 kts 327°
2026-05-09 01:19 40.57623 -73.61424 1991 ft 210 kts 317°
2026-05-09 01:19 40.58539 -73.62902 1992 ft 209 kts 301°
2026-05-09 01:20 40.59247 -73.64579 1979 ft 210 kts 298°
2026-05-09 01:20 40.59959 -73.66212 1747 ft 199 kts 300°
2026-05-09 01:20 40.60419 -73.67217 1582 ft 189 kts 301°
2026-05-09 01:20 40.61056 -73.68618 1359 ft 168 kts 300°
2026-05-09 01:21 40.61621 -73.69863 1153 ft 151 kts 300°
2026-05-09 01:21 40.61690 -73.70014 1121 ft 150 kts 300°
2026-05-09 01:21 40.62105 -73.70922 951 ft 149 kts 300°
2026-05-09 01:21 40.62643 -73.72099 750 ft 152 kts 300°
2026-05-09 01:22 40.63198 -73.73309 558 ft 155 kts 301°
2026-05-09 01:22 40.63748 -73.74532 353 ft 156 kts 300°
2026-05-09 01:22 40.64293 -73.75754 149 ft 155 kts 300°
2026-05-09 01:22 40.64836 -73.76951 25 ft 142 kts 300°
2026-05-09 01:23 40.65211 -73.77779 20 ft 55 kts 301°
2026-05-09 01:23 40.65302 -73.78037 20 ft 27 kts 277°
2026-05-09 01:23 40.65313 -73.78242 20 ft 9 kts 273°
2026-05-09 01:23 40.65314 -73.78253 20 ft 3 kts 275°
2026-05-09 01:24 40.65327 -73.78318 20 ft 13 kts 295°
2026-05-09 01:24 40.65352 -73.78458 20 ft 17 kts 256°
2026-05-09 01:24 40.65295 -73.78614 20 ft 19 kts 242°
2026-05-09 01:24 40.65241 -73.78747 18 ft 15 kts 243°
2026-05-09 01:25 40.65200 -73.78876 19 ft 14 kts 222°
2026-05-09 01:25 40.65104 -73.78909 18 ft 15 kts 186°
2026-05-09 01:25 40.65019 -73.78964 20 ft 13 kts 240°
2026-05-09 01:25 40.64973 -73.79079 19 ft 15 kts 241°
2026-05-09 01:26 40.64923 -73.79198 18 ft 14 kts 241°
2026-05-09 01:26 40.64889 -73.79289 19 ft 10 kts 260°
2026-05-09 01:26 40.64917 -73.79347 18 ft 4 kts 332°
2026-05-09 01:26 40.64931 -73.79357 19 ft 0 kts 331°